Location: Unspecified
(48.5670°N, 0.0000°E)
Time: 12:10:19
(UTC+00:00)

Transit 4A - Pass Details

Date: 29 August 2019
Orbit: 865 x 980 km, 66.8° (Epoch: 15 September)

Event Time Altitude Azimuth Distance (km) Brightness Sun altitude
Rises 20:47:44 0° 301° (WNW) 3,678 12.7 -18.3°
Reaches altitude 10° 20:51:45 10° 325° (NW) 2,717 11.5 -18.8°
Maximum altitude 20:55:05 14° 357° (N) 2,388 10.6 -19.3°
Drops below altitude 10° 20:58:24 10° 30° (NNE) 2,683 10.4 -19.7°
Sets 21:02:19 0° 54° (NE) 3,603 10.9 -20.2°
